Information on these data can be found in provided Readme document
Contact Info: Zachary Fasnacht (zachary.fasnacht@ssaihq.com); Nickolay Krotkov (nickolay.a.krotkov@nasa.gov); Lok Lamsal (lok.lamsal@nasa.gov)

FillValue: -999.
ScaleFactor: 1e15
Units: molecules/cm^2

Date(yyyy-mm-dd),City,Country,LonCenter,LatCenter,BoundingCoordinates,Median,Q1,Q3,Mean,Baseline_Median,Baseline_Q1,Baseline_Q3,Baseline_Mean,NumGoodSamples,NumTotalSamples
2015-01-01,Indianapolis,USA,-86.1581,39.7684,[-86.6581 39.2684 -85.6581 40.2684],4.31,2.703,5.888,4.511,3.757,2.29,5.111,3.853,110.0,584.0
2015-01-02,Indianapolis,USA,-86.1581,39.7684,[-86.6581 39.2684 -85.6581 40.2684],4.174,2.786,5.731,4.473,3.771,2.567,5.163,4.018,118.0,581.0
2015-01-03,Indianapolis,USA,-86.1581,39.7684,[-86.6581 39.2684 -85.6581 40.2684],5.291,3.808,6.471,5.203,4.04,2.832,5.306,4.171,89.0,587.0
2015-01-04,Indianapolis,USA,-86.1581,39.7684,[-86.6581 39.2684 -85.6581 40.2684],5.291,3.808,6.471,5.203,4.346,2.947,5.469,4.328,89.0,586.0
2015-01-05,Indianapolis,USA,-86.1581,39.7684,[-86.6581 39.2684 -85.6581 40.2684],5.291,3.808,6.471,5.203,4.143,2.62,5.388,4.089,89.0,584.0
2015-01-06,Indianapolis,USA,-86.1581,39.7684,[-86.6581 39.2684 -85.6581 40.2684],5.364,4.093,6.471,5.506,4.124,2.645,5.39,4.145,66.0,593.0
2015-01-07,Indianapolis,USA,-86.1581,39.7684,[-86.6581 39.2684 -85.6581 40.2684],5.564,4.174,7.095,6.023,3.77,2.892,5.226,4.146,79.0,588.0
2015-01-08,Indianapolis,USA,-86.1581,39.7684,[-86.6581 39.2684 -85.6581 40.2684],5.366,3.073,9.206,6.312,3.412,2.509,5.159,3.832,45.0,582.0
2015-01-09,Indianapolis,USA,-86.1581,39.7684,[-86.6581 39.2684 -85.6581 40.2684],5.366,3.073,9.206,6.312,3.477,2.621,5.249,3.917,45.0,539.0
2015-01-10,Indianapolis,USA,-86.1581,39.7684,[-86.6581 39.2684 -85.6581 40.2684],6.046,3.783,9.768,6.581,3.54,2.723,5.275,3.924,42.0,541.0
2015-01-11,Indianapolis,USA,-86.1581,39.7684,[-86.6581 39.2684 -85.6581 40.2684],3.804,2.19,6.101,4.649,3.308,2.484,4.934,3.773,62.0,540.0
2015-01-12,Indianapolis,USA,-86.1581,39.7684,[-86.6581 39.2684 -85.6581 40.2684],3.804,2.19,6.101,4.649,3.885,2.766,5.797,4.787,62.0,545.0
2015-01-13,Indianapolis,USA,-86.1581,39.7684,[-86.6581 39.2684 -85.6581 40.2684],4.335,2.738,5.944,4.831,3.951,2.817,5.824,4.965,63.0,551.0
2015-01-14,Indianapolis,USA,-86.1581,39.7684,[-86.6581 39.2684 -85.6581 40.2684],4.335,2.738,5.944,4.847,4.007,2.826,5.841,5.013,65.0,554.0
2015-01-15,Indianapolis,USA,-86.1581,39.7684,[-86.6581 39.2684 -85.6581 40.2684],4.43,3.037,6.046,4.97,3.786,2.711,6.201,5.054,61.0,550.0
2015-01-16,Indianapolis,USA,-86.1581,39.7684,[-86.6581 39.2684 -85.6581 40.2684],5.352,3.098,7.335,5.552,4.092,2.74,6.671,5.203,70.0,547.0
2015-01-17,Indianapolis,USA,-86.1581,39.7684,[-86.6581 39.2684 -85.6581 40.2684],5.366,3.098,7.694,5.737,3.842,2.585,6.506,5.121,62.0,546.0
2015-01-18,Indianapolis,USA,-86.1581,39.7684,[-86.6581 39.2684 -85.6581 40.2684],5.366,3.098,7.694,5.737,3.711,2.475,6.532,5.071,62.0,546.0
2015-01-19,Indianapolis,USA,-86.1581,39.7684,[-86.6581 39.2684 -85.6581 40.2684],5.366,3.098,7.694,5.737,3.393,2.267,5.818,4.542,62.0,553.0
2015-01-20,Indianapolis,USA,-86.1581,39.7684,[-86.6581 39.2684 -85.6581 40.2684],5.524,3.657,8.03,6.142,3.937,2.588,6.455,4.969,70.0,550.0
2015-01-21,Indianapolis,USA,-86.1581,39.7684,[-86.6581 39.2684 -85.6581 40.2684],5.661,3.854,8.623,6.429,4.059,2.791,6.271,4.955,97.0,549.0
2015-01-22,Indianapolis,USA,-86.1581,39.7684,[-86.6581 39.2684 -85.6581 40.2684],5.524,3.804,7.788,6.037,4.253,2.8,6.205,4.899,84.0,559.0
2015-01-23,Indianapolis,USA,-86.1581,39.7684,[-86.6581 39.2684 -85.6581 40.2684],5.543,3.804,7.802,6.023,4.269,2.794,6.039,4.8,100.0,556.0
2015-01-24,Indianapolis,USA,-86.1581,39.7684,[-86.6581 39.2684 -85.6581 40.2684],5.543,3.804,7.802,6.023,4.263,2.786,6.124,4.832,100.0,592.0
2015-01-25,Indianapolis,USA,-86.1581,39.7684,[-86.6581 39.2684 -85.6581 40.2684],5.543,3.804,7.802,6.023,4.239,2.758,6.109,4.84,100.0,592.0
2015-01-26,Indianapolis,USA,-86.1581,39.7684,[-86.6581 39.2684 -85.6581 40.2684],6.862,5.366,8.638,7.401,4.384,2.964,6.031,4.899,80.0,593.0
2015-01-27,Indianapolis,USA,-86.1581,39.7684,[-86.6581 39.2684 -85.6581 40.2684],5.944,4.081,8.03,6.382,3.957,2.635,5.442,4.296,110.0,592.0
2015-01-28,Indianapolis,USA,-86.1581,39.7684,[-86.6581 39.2684 -85.6581 40.2684],6.261,3.318,8.723,6.495,3.888,2.419,5.404,4.187,94.0,594.0
2015-01-29,Indianapolis,USA,-86.1581,39.7684,[-86.6581 39.2684 -85.6581 40.2684],5.685,2.92,8.365,6.039,3.849,2.362,5.417,4.173,104.0,602.0
2015-01-30,Indianapolis,USA,-86.1581,39.7684,[-86.6581 39.2684 -85.6581 40.2684],5.555,2.92,8.172,5.958,3.889,2.551,5.357,4.202,108.0,605.0
2015-01-31,Indianapolis,USA,-86.1581,39.7684,[-86.6581 39.2684 -85.6581 40.2684],5.046,2.847,7.802,5.474,3.808,2.549,5.285,4.137,99.0,598.0
2015-02-01,Indianapolis,USA,-86.1581,39.7684,[-86.6581 39.2684 -85.6581 40.2684],4.804,2.834,7.802,5.373,3.785,2.595,5.259,4.075,103.0,594.0
2015-02-02,Indianapolis,USA,-86.1581,39.7684,[-86.6581 39.2684 -85.6581 40.2684],4.804,2.834,7.802,5.373,3.719,2.594,5.188,4.019,103.0,589.0
2015-02-03,Indianapolis,USA,-86.1581,39.7684,[-86.6581 39.2684 -85.6581 40.2684],4.175,2.92,6.438,4.979,3.827,2.93,5.23,4.264,141.0,587.0
2015-02-04,Indianapolis,USA,-86.1581,39.7684,[-86.6581 39.2684 -85.6581 40.2684],3.957,2.887,6.369,4.661,3.824,2.944,5.229,4.18,133.0,595.0
2015-02-05,Indianapolis,USA,-86.1581,39.7684,[-86.6581 39.2684 -85.6581 40.2684],3.713,2.847,5.863,4.343,3.705,2.844,5.165,4.088,110.0,593.0
2015-02-06,Indianapolis,USA,-86.1581,39.7684,[-86.6581 39.2684 -85.6581 40.2684],3.713,2.813,5.723,4.303,3.699,2.783,5.108,4.019,139.0,591.0
2015-02-07,Indianapolis,USA,-86.1581,39.7684,[-86.6581 39.2684 -85.6581 40.2684],3.571,2.697,5.507,4.145,3.605,2.735,5.014,3.963,123.0,600.0
2015-02-08,Indianapolis,USA,-86.1581,39.7684,[-86.6581 39.2684 -85.6581 40.2684],3.465,2.514,5.473,3.986,3.677,2.732,4.978,3.903,144.0,595.0
2015-02-09,Indianapolis,USA,-86.1581,39.7684,[-86.6581 39.2684 -85.6581 40.2684],3.465,2.514,5.473,3.986,3.608,2.668,4.857,3.809,144.0,589.0
2015-02-10,Indianapolis,USA,-86.1581,39.7684,[-86.6581 39.2684 -85.6581 40.2684],3.465,2.514,5.473,3.986,3.443,2.581,4.714,3.676,144.0,546.0
2015-02-11,Indianapolis,USA,-86.1581,39.7684,[-86.6581 39.2684 -85.6581 40.2684],3.568,2.657,5.369,3.879,3.396,2.561,4.623,3.627,114.0,546.0
2015-02-12,Indianapolis,USA,-86.1581,39.7684,[-86.6581 39.2684 -85.6581 40.2684],3.568,2.697,4.965,3.862,3.325,2.508,4.532,3.573,119.0,545.0
2015-02-13,Indianapolis,USA,-86.1581,39.7684,[-86.6581 39.2684 -85.6581 40.2684],3.731,2.697,5.187,3.956,3.373,2.501,4.624,3.587,107.0,547.0
2015-02-14,Indianapolis,USA,-86.1581,39.7684,[-86.6581 39.2684 -85.6581 40.2684],3.731,2.787,5.369,3.996,3.239,2.322,4.59,3.503,103.0,551.0
2015-02-15,Indianapolis,USA,-86.1581,39.7684,[-86.6581 39.2684 -85.6581 40.2684],3.731,2.787,5.369,3.996,3.349,2.436,4.706,3.585,103.0,555.0
2015-02-16,Indianapolis,USA,-86.1581,39.7684,[-86.6581 39.2684 -85.6581 40.2684],3.758,2.828,5.369,4.067,3.398,2.466,4.762,3.638,99.0,550.0
2015-02-17,Indianapolis,USA,-86.1581,39.7684,[-86.6581 39.2684 -85.6581 40.2684],3.731,2.787,5.187,4.022,3.427,2.462,4.789,3.648,104.0,546.0
2015-02-18,Indianapolis,USA,-86.1581,39.7684,[-86.6581 39.2684 -85.6581 40.2684],3.151,2.228,4.193,3.727,3.397,2.345,4.521,3.521,66.0,545.0
2015-02-19,Indianapolis,USA,-86.1581,39.7684,[-86.6581 39.2684 -85.6581 40.2684],3.061,1.8,3.984,3.483,3.457,2.322,4.622,3.602,69.0,546.0
2015-02-20,Indianapolis,USA,-86.1581,39.7684,[-86.6581 39.2684 -85.6581 40.2684],2.923,1.663,3.867,3.111,3.499,2.284,4.619,3.571,63.0,553.0
2015-02-21,Indianapolis,USA,-86.1581,39.7684,[-86.6581 39.2684 -85.6581 40.2684],3.026,2.642,3.867,3.107,3.498,2.324,4.654,3.576,58.0,552.0
2015-02-22,Indianapolis,USA,-86.1581,39.7684,[-86.6581 39.2684 -85.6581 40.2684],2.966,1.951,3.817,2.974,3.382,2.226,4.461,3.487,69.0,550.0
2015-02-23,Indianapolis,USA,-86.1581,39.7684,[-86.6581 39.2684 -85.6581 40.2684],2.707,1.303,3.321,2.633,3.216,2.04,4.377,3.335,55.0,561.0
2015-02-24,Indianapolis,USA,-86.1581,39.7684,[-86.6581 39.2684 -85.6581 40.2684],2.707,1.292,3.321,2.559,3.42,2.238,4.486,3.491,58.0,555.0
2015-02-25,Indianapolis,USA,-86.1581,39.7684,[-86.6581 39.2684 -85.6581 40.2684],2.707,1.292,3.321,2.559,3.54,2.36,4.413,3.458,58.0,592.0
2015-02-26,Indianapolis,USA,-86.1581,39.7684,[-86.6581 39.2684 -85.6581 40.2684],2.707,1.307,3.472,2.58,3.434,2.442,4.486,3.486,68.0,590.0
2015-02-27,Indianapolis,USA,-86.1581,39.7684,[-86.6581 39.2684 -85.6581 40.2684],2.697,1.303,3.228,2.52,3.543,2.519,4.516,3.54,63.0,591.0
2015-02-28,Indianapolis,USA,-86.1581,39.7684,[-86.6581 39.2684 -85.6581 40.2684],2.014,1.328,2.966,2.248,3.244,2.431,4.383,3.383,100.0,590.0
2015-03-01,Indianapolis,USA,-86.1581,39.7684,[-86.6581 39.2684 -85.6581 40.2684],2.014,1.328,2.966,2.248,3.215,2.348,4.316,3.349,100.0,595.0
2015-03-02,Indianapolis,USA,-86.1581,39.7684,[-86.6581 39.2684 -85.6581 40.2684],1.68,1.238,2.676,2.007,3.01,2.126,4.047,3.087,117.0,602.0
2015-03-03,Indianapolis,USA,-86.1581,39.7684,[-86.6581 39.2684 -85.6581 40.2684],1.68,1.238,2.676,2.007,3.245,2.327,4.223,3.278,117.0,604.0
2015-03-04,Indianapolis,USA,-86.1581,39.7684,[-86.6581 39.2684 -85.6581 40.2684],1.637,1.238,2.672,1.984,3.363,2.354,4.288,3.319,112.0,597.0
2015-03-05,Indianapolis,USA,-86.1581,39.7684,[-86.6581 39.2684 -85.6581 40.2684],1.832,1.303,3.228,2.564,3.409,2.28,4.383,3.451,138.0,591.0
2015-03-06,Indianapolis,USA,-86.1581,39.7684,[-86.6581 39.2684 -85.6581 40.2684],1.916,1.303,3.228,2.604,3.224,2.158,4.283,3.347,135.0,587.0
2015-03-07,Indianapolis,USA,-86.1581,39.7684,[-86.6581 39.2684 -85.6581 40.2684],2.307,1.328,4.03,2.859,3.159,2.116,4.465,3.362,157.0,583.0
2015-03-08,Indianapolis,USA,-86.1581,39.7684,[-86.6581 39.2684 -85.6581 40.2684],1.832,1.292,3.953,2.73,3.057,2.148,4.388,3.32,133.0,590.0
2015-03-09,Indianapolis,USA,-86.1581,39.7684,[-86.6581 39.2684 -85.6581 40.2684],2.014,1.303,4.105,2.835,3.278,2.271,4.571,3.495,132.0,588.0
2015-03-10,Indianapolis,USA,-86.1581,39.7684,[-86.6581 39.2684 -85.6581 40.2684],2.191,1.358,4.364,2.871,3.378,2.339,4.684,3.563,155.0,586.0
2015-03-11,Indianapolis,USA,-86.1581,39.7684,[-86.6581 39.2684 -85.6581 40.2684],2.133,1.358,4.074,2.806,3.266,2.219,4.689,3.5,162.0,597.0
2015-03-12,Indianapolis,USA,-86.1581,39.7684,[-86.6581 39.2684 -85.6581 40.2684],2.132,1.358,4.074,2.783,3.463,2.31,4.892,3.642,163.0,592.0
2015-03-13,Indianapolis,USA,-86.1581,39.7684,[-86.6581 39.2684 -85.6581 40.2684],2.101,1.358,4.105,2.788,3.555,2.332,5.051,3.648,153.0,588.0
2015-03-14,Indianapolis,USA,-86.1581,39.7684,[-86.6581 39.2684 -85.6581 40.2684],2.101,1.358,4.105,2.788,3.608,2.362,5.078,3.744,153.0,545.0
2015-03-15,Indianapolis,USA,-86.1581,39.7684,[-86.6581 39.2684 -85.6581 40.2684],2.652,1.261,4.566,3.156,3.935,2.461,5.488,4.031,116.0,545.0
2015-03-16,Indianapolis,USA,-86.1581,39.7684,[-86.6581 39.2684 -85.6581 40.2684],2.652,1.261,4.566,3.156,3.902,2.327,5.411,3.975,116.0,544.0
2015-03-17,Indianapolis,USA,-86.1581,39.7684,[-86.6581 39.2684 -85.6581 40.2684],3.93,1.825,5.861,3.857,4.17,2.436,5.683,4.103,99.0,545.0
2015-03-18,Indianapolis,USA,-86.1581,39.7684,[-86.6581 39.2684 -85.6581 40.2684],3.93,1.825,5.861,3.857,3.741,2.274,5.491,3.893,99.0,551.0
2015-03-19,Indianapolis,USA,-86.1581,39.7684,[-86.6581 39.2684 -85.6581 40.2684],3.93,1.825,5.861,3.857,3.75,2.306,5.544,3.933,99.0,557.0
2015-03-20,Indianapolis,USA,-86.1581,39.7684,[-86.6581 39.2684 -85.6581 40.2684],2.763,1.449,4.54,3.057,3.819,2.377,5.493,3.981,73.0,554.0
2015-03-21,Indianapolis,USA,-86.1581,39.7684,[-86.6581 39.2684 -85.6581 40.2684],3.365,1.825,4.54,3.367,3.781,2.299,5.443,3.95,103.0,549.0
2015-03-22,Indianapolis,USA,-86.1581,39.7684,[-86.6581 39.2684 -85.6581 40.2684],2.732,1.635,4.149,2.968,3.752,2.333,5.446,3.942,81.0,549.0
2015-03-23,Indianapolis,USA,-86.1581,39.7684,[-86.6581 39.2684 -85.6581 40.2684],3.377,2.132,4.699,3.337,3.907,2.513,5.654,4.015,120.0,547.0
2015-03-24,Indianapolis,USA,-86.1581,39.7684,[-86.6581 39.2684 -85.6581 40.2684],3.305,2.005,4.699,3.289,3.752,2.376,5.733,3.99,110.0,555.0
2015-03-25,Indianapolis,USA,-86.1581,39.7684,[-86.6581 39.2684 -85.6581 40.2684],2.92,2.145,4.136,3.138,3.61,2.402,5.548,3.902,111.0,552.0
2015-03-26,Indianapolis,USA,-86.1581,39.7684,[-86.6581 39.2684 -85.6581 40.2684],3.001,2.235,4.227,3.294,3.617,2.351,5.445,3.884,102.0,547.0
2015-03-27,Indianapolis,USA,-86.1581,39.7684,[-86.6581 39.2684 -85.6581 40.2684],3.001,2.235,4.227,3.329,3.534,2.236,5.298,3.813,101.0,556.0
2015-03-28,Indianapolis,USA,-86.1581,39.7684,[-86.6581 39.2684 -85.6581 40.2684],3.001,2.165,4.149,3.231,3.206,2.094,5.055,3.587,127.0,549.0
2015-03-29,Indianapolis,USA,-86.1581,39.7684,[-86.6581 39.2684 -85.6581 40.2684],3.001,2.165,4.149,3.231,3.072,2.046,4.848,3.454,127.0,587.0
2015-03-30,Indianapolis,USA,-86.1581,39.7684,[-86.6581 39.2684 -85.6581 40.2684],3.001,2.165,4.149,3.231,2.737,1.79,4.307,3.135,127.0,590.0
2015-03-31,Indianapolis,USA,-86.1581,39.7684,[-86.6581 39.2684 -85.6581 40.2684],3.001,2.165,4.149,3.231,2.922,1.961,4.448,3.254,127.0,590.0
2015-04-01,Indianapolis,USA,-86.1581,39.7684,[-86.6581 39.2684 -85.6581 40.2684],3.001,2.165,4.149,3.226,2.952,2.044,4.315,3.28,129.0,588.0
2015-04-02,Indianapolis,USA,-86.1581,39.7684,[-86.6581 39.2684 -85.6581 40.2684],3.001,2.165,4.149,3.23,2.923,2.059,4.412,3.317,131.0,590.0
2015-04-03,Indianapolis,USA,-86.1581,39.7684,[-86.6581 39.2684 -85.6581 40.2684],2.76,2.02,3.73,3.033,2.946,2.048,4.086,3.202,145.0,592.0
2015-04-04,Indianapolis,USA,-86.1581,39.7684,[-86.6581 39.2684 -85.6581 40.2684],2.723,1.946,3.673,2.912,2.729,1.947,3.783,2.95,173.0,593.0
2015-04-05,Indianapolis,USA,-86.1581,39.7684,[-86.6581 39.2684 -85.6581 40.2684],2.669,1.751,3.454,2.71,2.651,1.848,3.653,2.83,143.0,590.0
2015-04-06,Indianapolis,USA,-86.1581,39.7684,[-86.6581 39.2684 -85.6581 40.2684],2.669,1.751,3.454,2.714,2.707,1.891,3.716,2.877,144.0,585.0
2015-04-07,Indianapolis,USA,-86.1581,39.7684,[-86.6581 39.2684 -85.6581 40.2684],2.165,1.541,2.981,2.232,2.613,1.864,3.724,2.811,105.0,582.0
2015-04-08,Indianapolis,USA,-86.1581,39.7684,[-86.6581 39.2684 -85.6581 40.2684],2.559,1.751,3.012,2.376,2.602,1.834,3.557,2.715,128.0,578.0
2015-04-09,Indianapolis,USA,-86.1581,39.7684,[-86.6581 39.2684 -85.6581 40.2684],2.587,1.63,3.117,2.372,2.647,1.848,3.679,2.788,97.0,587.0
2015-04-10,Indianapolis,USA,-86.1581,39.7684,[-86.6581 39.2684 -85.6581 40.2684],2.981,1.987,4.104,3.233,2.725,1.907,3.731,2.901,127.0,588.0
2015-04-11,Indianapolis,USA,-86.1581,39.7684,[-86.6581 39.2684 -85.6581 40.2684],3.074,1.989,4.115,3.332,2.816,1.952,3.878,2.949,142.0,586.0
2015-04-12,Indianapolis,USA,-86.1581,39.7684,[-86.6581 39.2684 -85.6581 40.2684],3.134,2.197,4.602,3.438,2.851,2.046,4.098,3.031,116.0,598.0
2015-04-13,Indianapolis,USA,-86.1581,39.7684,[-86.6581 39.2684 -85.6581 40.2684],3.134,2.197,4.602,3.438,2.827,1.922,4.101,3.018,116.0,589.0
2015-04-14,Indianapolis,USA,-86.1581,39.7684,[-86.6581 39.2684 -85.6581 40.2684],3.134,2.197,4.602,3.438,2.879,1.974,4.045,3.047,116.0,580.0
2015-04-15,Indianapolis,USA,-86.1581,39.7684,[-86.6581 39.2684 -85.6581 40.2684],3.134,2.197,4.602,3.438,2.77,1.877,3.915,2.975,116.0,537.0
2015-04-16,Indianapolis,USA,-86.1581,39.7684,[-86.6581 39.2684 -85.6581 40.2684],3.134,2.197,4.602,3.446,2.79,1.884,3.958,3.03,114.0,538.0
2015-04-17,Indianapolis,USA,-86.1581,39.7684,[-86.6581 39.2684 -85.6581 40.2684],3.134,2.346,4.602,3.455,2.91,2.021,3.975,3.091,122.0,539.0
2015-04-18,Indianapolis,USA,-86.1581,39.7684,[-86.6581 39.2684 -85.6581 40.2684],3.555,2.724,4.842,3.834,2.894,2.084,4.006,3.115,108.0,545.0
2015-04-19,Indianapolis,USA,-86.1581,39.7684,[-86.6581 39.2684 -85.6581 40.2684],3.576,2.882,4.683,3.996,3.006,2.141,4.173,3.287,105.0,552.0
2015-04-20,Indianapolis,USA,-86.1581,39.7684,[-86.6581 39.2684 -85.6581 40.2684],3.566,2.853,4.683,3.976,3.109,2.229,4.218,3.361,112.0,553.0
2015-04-21,Indianapolis,USA,-86.1581,39.7684,[-86.6581 39.2684 -85.6581 40.2684],3.568,2.882,4.665,3.955,3.131,2.268,4.222,3.371,128.0,549.0
2015-04-22,Indianapolis,USA,-86.1581,39.7684,[-86.6581 39.2684 -85.6581 40.2684],3.571,2.882,4.623,3.927,3.129,2.254,4.205,3.345,143.0,545.0
2015-04-23,Indianapolis,USA,-86.1581,39.7684,[-86.6581 39.2684 -85.6581 40.2684],3.923,3.146,4.842,4.136,3.091,2.364,4.192,3.383,120.0,545.0
2015-04-24,Indianapolis,USA,-86.1581,39.7684,[-86.6581 39.2684 -85.6581 40.2684],3.405,2.551,4.414,3.676,3.017,2.257,4.108,3.311,158.0,542.0
2015-04-25,Indianapolis,USA,-86.1581,39.7684,[-86.6581 39.2684 -85.6581 40.2684],2.97,2.439,3.923,3.21,2.917,2.216,3.892,3.136,127.0,547.0
2015-04-26,Indianapolis,USA,-86.1581,39.7684,[-86.6581 39.2684 -85.6581 40.2684],3.005,2.51,3.473,3.046,2.903,2.261,3.765,3.125,146.0,561.0
2015-04-27,Indianapolis,USA,-86.1581,39.7684,[-86.6581 39.2684 -85.6581 40.2684],3.005,2.51,3.473,3.046,2.936,2.274,3.764,3.15,146.0,558.0
2015-04-28,Indianapolis,USA,-86.1581,39.7684,[-86.6581 39.2684 -85.6581 40.2684],3.042,2.519,3.476,3.048,2.928,2.273,3.656,3.097,176.0,571.0
2015-04-29,Indianapolis,USA,-86.1581,39.7684,[-86.6581 39.2684 -85.6581 40.2684],3.005,2.49,3.473,3.005,2.961,2.309,3.706,3.118,191.0,566.0
2015-04-30,Indianapolis,USA,-86.1581,39.7684,[-86.6581 39.2684 -85.6581 40.2684],2.985,2.447,3.462,2.97,2.898,2.308,3.68,3.078,200.0,603.0
2015-05-01,Indianapolis,USA,-86.1581,39.7684,[-86.6581 39.2684 -85.6581 40.2684],3.013,2.49,3.562,3.073,2.884,2.267,3.638,3.042,210.0,599.0
2015-05-02,Indianapolis,USA,-86.1581,39.7684,[-86.6581 39.2684 -85.6581 40.2684],3.005,2.447,3.517,3.051,2.842,2.236,3.614,3.017,200.0,602.0
2015-05-03,Indianapolis,USA,-86.1581,39.7684,[-86.6581 39.2684 -85.6581 40.2684],3.005,2.447,3.476,3.027,2.846,2.201,3.531,2.972,217.0,602.0
2015-05-04,Indianapolis,USA,-86.1581,39.7684,[-86.6581 39.2684 -85.6581 40.2684],2.932,2.439,3.454,2.948,2.765,2.105,3.349,2.76,195.0,605.0
2015-05-05,Indianapolis,USA,-86.1581,39.7684,[-86.6581 39.2684 -85.6581 40.2684],2.863,2.228,3.381,2.872,2.722,1.989,3.295,2.691,197.0,616.0
2015-05-06,Indianapolis,USA,-86.1581,39.7684,[-86.6581 39.2684 -85.6581 40.2684],2.781,2.073,3.365,2.776,2.607,1.942,3.179,2.602,206.0,620.0
2015-05-07,Indianapolis,USA,-86.1581,39.7684,[-86.6581 39.2684 -85.6581 40.2684],2.762,2.073,3.249,2.745,2.558,1.915,3.101,2.554,196.0,611.0
2015-05-08,Indianapolis,USA,-86.1581,39.7684,[-86.6581 39.2684 -85.6581 40.2684],2.762,2.125,3.284,2.782,2.534,1.869,3.088,2.535,217.0,608.0
2015-05-09,Indianapolis,USA,-86.1581,39.7684,[-86.6581 39.2684 -85.6581 40.2684],2.924,2.237,3.381,2.857,2.543,1.866,3.089,2.517,179.0,607.0
2015-05-10,Indianapolis,USA,-86.1581,39.7684,[-86.6581 39.2684 -85.6581 40.2684],2.924,2.237,3.381,2.857,2.531,1.873,3.068,2.514,179.0,608.0
2015-05-11,Indianapolis,USA,-86.1581,39.7684,[-86.6581 39.2684 -85.6581 40.2684],2.723,2.014,3.465,2.821,2.454,1.801,3.056,2.468,145.0,598.0
2015-05-12,Indianapolis,USA,-86.1581,39.7684,[-86.6581 39.2684 -85.6581 40.2684],2.723,2.04,3.319,2.776,2.472,1.801,3.035,2.472,179.0,621.0
2015-05-13,Indianapolis,USA,-86.1581,39.7684,[-86.6581 39.2684 -85.6581 40.2684],2.576,1.912,3.28,2.72,2.474,1.851,3.086,2.519,149.0,618.0
2015-05-14,Indianapolis,USA,-86.1581,39.7684,[-86.6581 39.2684 -85.6581 40.2684],2.689,2.035,3.314,2.771,2.412,1.795,2.989,2.419,144.0,628.0
2015-05-15,Indianapolis,USA,-86.1581,39.7684,[-86.6581 39.2684 -85.6581 40.2684],2.653,2.035,3.319,2.751,2.415,1.778,2.988,2.403,160.0,623.0
2015-05-16,Indianapolis,USA,-86.1581,39.7684,[-86.6581 39.2684 -85.6581 40.2684],2.57,1.864,3.149,2.556,2.437,1.734,3.021,2.389,159.0,621.0
2015-05-17,Indianapolis,USA,-86.1581,39.7684,[-86.6581 39.2684 -85.6581 40.2684],2.57,1.864,3.149,2.556,2.39,1.715,2.979,2.349,159.0,575.0
2015-05-18,Indianapolis,USA,-86.1581,39.7684,[-86.6581 39.2684 -85.6581 40.2684],2.516,1.758,3.137,2.501,2.452,1.742,3.069,2.39,142.0,575.0
2015-05-19,Indianapolis,USA,-86.1581,39.7684,[-86.6581 39.2684 -85.6581 40.2684],2.521,1.758,3.137,2.509,2.461,1.742,3.08,2.41,139.0,573.0
2015-05-20,Indianapolis,USA,-86.1581,39.7684,[-86.6581 39.2684 -85.6581 40.2684],2.616,2.08,3.167,2.656,2.562,1.881,3.135,2.535,138.0,572.0
2015-05-21,Indianapolis,USA,-86.1581,39.7684,[-86.6581 39.2684 -85.6581 40.2684],3.012,2.47,3.622,3.04,2.541,1.88,3.128,2.522,136.0,578.0
2015-05-22,Indianapolis,USA,-86.1581,39.7684,[-86.6581 39.2684 -85.6581 40.2684],3.012,2.396,3.583,3.004,2.533,1.834,3.148,2.523,152.0,585.0
2015-05-23,Indianapolis,USA,-86.1581,39.7684,[-86.6581 39.2684 -85.6581 40.2684],2.984,2.202,3.575,2.901,2.544,1.757,3.179,2.513,139.0,578.0
2015-05-24,Indianapolis,USA,-86.1581,39.7684,[-86.6581 39.2684 -85.6581 40.2684],2.984,2.202,3.575,2.901,2.58,1.776,3.168,2.521,139.0,572.0
2015-05-25,Indianapolis,USA,-86.1581,39.7684,[-86.6581 39.2684 -85.6581 40.2684],2.984,2.202,3.575,2.901,2.562,1.763,3.203,2.53,139.0,569.0
2015-05-26,Indianapolis,USA,-86.1581,39.7684,[-86.6581 39.2684 -85.6581 40.2684],2.895,2.026,3.549,2.784,2.573,1.729,3.191,2.52,160.0,572.0
2015-05-27,Indianapolis,USA,-86.1581,39.7684,[-86.6581 39.2684 -85.6581 40.2684],3.039,1.792,3.672,2.848,2.555,1.698,3.167,2.511,126.0,554.0
2015-05-28,Indianapolis,USA,-86.1581,39.7684,[-86.6581 39.2684 -85.6581 40.2684],3.174,2.146,3.796,2.99,2.517,1.712,3.179,2.501,159.0,574.0
2015-05-29,Indianapolis,USA,-86.1581,39.7684,[-86.6581 39.2684 -85.6581 40.2684],3.187,2.146,3.846,3.013,2.484,1.646,3.16,2.457,170.0,572.0
2015-05-30,Indianapolis,USA,-86.1581,39.7684,[-86.6581 39.2684 -85.6581 40.2684],3.227,2.128,3.869,3.048,2.464,1.63,3.188,2.449,160.0,582.0
2015-05-31,Indianapolis,USA,-86.1581,39.7684,[-86.6581 39.2684 -85.6581 40.2684],3.322,2.169,4.011,3.073,2.445,1.622,3.184,2.428,154.0,578.0
2015-06-01,Indianapolis,USA,-86.1581,39.7684,[-86.6581 39.2684 -85.6581 40.2684],3.322,2.169,4.011,3.073,2.496,1.615,3.269,2.437,154.0,615.0
2015-06-02,Indianapolis,USA,-86.1581,39.7684,[-86.6581 39.2684 -85.6581 40.2684],2.75,1.944,3.668,2.851,2.343,1.557,3.176,2.384,185.0,614.0
2015-06-03,Indianapolis,USA,-86.1581,39.7684,[-86.6581 39.2684 -85.6581 40.2684],2.75,1.944,3.668,2.851,2.317,1.569,3.157,2.38,185.0,616.0
2015-06-04,Indianapolis,USA,-86.1581,39.7684,[-86.6581 39.2684 -85.6581 40.2684],2.726,1.944,3.583,2.8,2.259,1.534,2.974,2.293,200.0,614.0
2015-06-05,Indianapolis,USA,-86.1581,39.7684,[-86.6581 39.2684 -85.6581 40.2684],2.419,1.808,3.181,2.521,2.246,1.606,2.936,2.285,196.0,616.0
2015-06-06,Indianapolis,USA,-86.1581,39.7684,[-86.6581 39.2684 -85.6581 40.2684],2.282,1.642,2.879,2.39,2.228,1.576,2.901,2.277,193.0,622.0
2015-06-07,Indianapolis,USA,-86.1581,39.7684,[-86.6581 39.2684 -85.6581 40.2684],2.226,1.621,2.879,2.378,2.22,1.546,2.885,2.255,204.0,626.0
2015-06-08,Indianapolis,USA,-86.1581,39.7684,[-86.6581 39.2684 -85.6581 40.2684],2.226,1.577,2.879,2.356,2.196,1.475,2.89,2.231,219.0,621.0
2015-06-09,Indianapolis,USA,-86.1581,39.7684,[-86.6581 39.2684 -85.6581 40.2684],2.169,1.465,2.845,2.279,2.211,1.427,2.996,2.296,237.0,616.0
2015-06-10,Indianapolis,USA,-86.1581,39.7684,[-86.6581 39.2684 -85.6581 40.2684],2.169,1.571,2.879,2.313,2.205,1.416,3.035,2.296,216.0,612.0
2015-06-11,Indianapolis,USA,-86.1581,39.7684,[-86.6581 39.2684 -85.6581 40.2684],2.128,1.45,2.845,2.221,2.128,1.367,3.031,2.271,221.0,612.0
2015-06-12,Indianapolis,USA,-86.1581,39.7684,[-86.6581 39.2684 -85.6581 40.2684],1.921,1.26,2.559,1.931,2.12,1.319,3.04,2.229,188.0,598.0
2015-06-13,Indianapolis,USA,-86.1581,39.7684,[-86.6581 39.2684 -85.6581 40.2684],1.881,1.248,2.508,1.843,2.158,1.335,3.031,2.242,168.0,621.0
2015-06-14,Indianapolis,USA,-86.1581,39.7684,[-86.6581 39.2684 -85.6581 40.2684],1.861,1.229,2.508,1.802,2.087,1.239,2.958,2.195,168.0,619.0
2015-06-15,Indianapolis,USA,-86.1581,39.7684,[-86.6581 39.2684 -85.6581 40.2684],1.847,1.227,2.487,1.79,2.06,1.299,2.949,2.192,169.0,629.0
2015-06-16,Indianapolis,USA,-86.1581,39.7684,[-86.6581 39.2684 -85.6581 40.2684],1.847,1.215,2.508,1.789,2.085,1.335,2.936,2.203,192.0,624.0
2015-06-17,Indianapolis,USA,-86.1581,39.7684,[-86.6581 39.2684 -85.6581 40.2684],1.665,0.827,2.377,1.651,2.034,1.249,3.016,2.219,161.0,619.0